Вернуться в каталог

STARLINK-36644

АктивенСвязьVLEO
NORAD 67821·PAYLOAD·🇺🇸 United States

Запущен Feb 16, 2026 с Vandenberg Space Force Base

Loading…

Ближайшие Пролёты (ближайшие 24 часа)

TLE

СвежийSource: CelesTrak SupGP

Эпоха: Sep 14, 2026, 21:01 UTC

1 67821C 26033A   26257.87618056  .00005542  00000+0  20074-3 0  2579
2 67821  43.0025 278.5544 0001454 266.1717 268.9331 15.27575774    12

Отслеживайте STARLINK-36644 в реальном времени с AllMySat

Download on the App Store